Back to catalog

STARLINK-11412

AliveCommunicationsVLEO
NORAD 63062·PAYLOAD·🇺🇸 United States

Launched Feb 21, 2025 from Cape Canaveral Space Force Station

Loading…

Next Passes (next 24 hours)

TLE

FreshSource: CelesTrak SupGP

Epoch: Sep 14, 2026, 15:02 UTC

1 63062C 25035L   26257.62687500  .00085799  00000+0  66652-3 0  2570
2 63062  43.0000 316.4949 0001609 264.6536 170.2418 15.70791654    19

Track STARLINK-11412 in real time with AllMySat

Download on the App Store